Location: Boitzum
(52.1496°N, 9.6943°E)
Time: 23:07:27
(UTC+00:00)

Meteor 2-5 Rocket - Pass Details

Date: 13 January 2026
Orbit: 832 x 910 km, 81.2° (Epoch: 7 February)

Event Time Altitude Azimuth Distance (km) Brightness Sun altitude
Rises 06:17:36 0° 346° (NNW) 3,482 6.5 -9.8°
Reaches altitude 10° 06:20:02 10° 347° (NNW) 2,551 5.9 -9.5°
Maximum altitude 06:25:53 87° 79° (ENE) 902 3.9 -8.7°
Drops below altitude 10° 06:31:47 10° 168° (SSE) 2,578 6.8 -7.8°
Sets 06:34:15 0° 169° (SSE) 3,521 7.5 -7.5°
